DW6386 Weather Reports


time (UTC)temp
C
wind
direction
speed
KPH
gust
KPH
rain 1hr
cm
rain 24hr
cm
rain mn
cm
humidity
%
barometer
mb
20260504210111 24 54 1.6 17.7 0.00 0.00 0.00 50 1011.2
20260504204604 25 316 3.2 12.9 0.00 0.00 0.00 49 1011.2
20260504203056 25 307 0.0 11.3 0.00 0.00 0.00 50 1011.4
20260504201555 25 56 4.8 16.1 0.00 0.00 0.00 49 1011.7
20260504200051 25 61 3.2 16.1 0.00 0.00 0.00 51 1011.8
20260504194603 25 37 3.2 12.9 0.00 0.00 0.00 50 1012.2
20260504193046 24 52 1.6 14.5 0.00 0.00 0.00 51 1012.3
20260504191548 24 44 3.2 11.3 0.00 0.00 0.00 50 1012.6
20260504190048 23 34 1.6 11.3 0.00 0.00 0.00 51 1012.9
20260504184539 23 359 3.2 14.5 0.00 0.00 0.00 52 1013.1
20260504183032 23 304 0.0 8.0 0.00 0.00 0.00 54 1013.2
20260504181529 22 38 1.6 12.9 0.00 0.00 0.00 53 1013.4
20260504180033 22 39 1.6 8.0 0.00 0.00 0.00 53 1013.6
20260504174522 22 275 0.0 11.3 0.00 0.00 0.00 56 1013.8
20260504173021 21 240 1.6 11.3 0.00 0.00 0.00 55 1014.1
20260504171515 21 323 3.2 11.3 0.00 0.00 0.00 55 1014.3
20260504081548 5 123 0.0 0.0 0.00 0.00 0.00 92 1016.3
20260504044524 7 90 0.0 0.0 0.00 0.00 0.00 85 1016.4
20260504043021 7 87 0.0 0.0 0.00 0.00 0.00 82 1016.4
20260504041518 7 87 0.0 0.0 0.00 0.00 0.00 82 1016.3
20260504040016 7 87 0.0 0.0 0.00 0.00 0.00 80 1016.3
20260504034526 8 87 0.0 0.0 0.00 0.00 0.00 80 1016.5
20260504033015 8 87 0.0 0.0 0.00 0.00 0.00 78 1016.4
20260504031514 8 86 0.0 0.0 0.00 0.00 0.00 74 1016.3
20260504030014 9 86 0.0 0.0 0.00 0.00 0.00 73 1016.3
20260504024514 9 86 0.0 0.0 0.00 0.00 0.00 71 1016.2
20260504023012 10 86 0.0 0.0 0.00 0.00 0.00 69 1016.0
20260504021512 10 81 0.0 0.0 0.00 0.00 0.00 69 1015.6
20260504020014 11 81 0.0 0.0 0.00 0.00 0.00 67 1015.6
20260504014517 11 81 0.0 0.0 0.00 0.00 0.00 65 1015.4
20260504013010 11 80 0.0 0.0 0.00 0.00 0.00 63 1015.4
20260504011510 11 75 0.0 0.0 0.00 0.00 0.00 62 1015.4
20260504010132 12 73 0.0 0.0 0.00 0.00 0.00 56 1015.4
20260504004508 13 73 0.0 0.0 0.00 0.00 0.00 54 1015.4
20260504003007 14 73 0.0 0.0 0.00 0.00 0.00 51 1015.3
20260504001507 15 72 0.0 0.0 0.00 0.00 0.00 46 1015.2
20260504000007 16 64 0.0 0.0 0.00 0.00 0.00 45 1015.1
20260503234508 16 69 0.0 0.0 0.00 0.00 0.00 44 1015.2
20260503233003 17 80 0.0 3.2 0.00 0.00 0.00 51 1015.3
20260503231502 17 65 0.0 3.2 0.00 0.00 0.00 51 1015.4
20260503230103 17 63 0.0 6.4 0.00 0.00 0.00 49 1015.6
20260503224559 18 243 0.0 4.8 0.00 0.00 0.00 49 1015.7
20260503223059 18 84 0.0 8.0 0.00 0.00 0.00 47 1015.7
20260503221557 17 58 0.0 8.0 0.00 0.00 0.00 48 1015.8
20260503220058 17 2 0.0 9.7 0.00 0.00 0.00 47 1015.9
20260503214558 17 334 0.0 9.7 0.00 0.00 0.00 48 1016.1
20260503213123 18 48 3.2 9.7 0.00 0.00 0.00 46 1016.1
20260503211617 18 40 0.0 9.7 0.00 0.00 0.00 47 1016.3